{"data":{"norad_id":63694,"intl_designator":"2025-086H","name":"HULIANWANG DIGUI-27","alt_names":[],"object_type":"PAYLOAD","status":"ACTIVE","operator":null,"country":"PRC","launch_date":"2025-04-28","launch_site_code":"WSC","launch_vehicle":null,"mission":null,"orbit_class":"UNKNOWN","rcs_meters":null,"size_class":null,"mass_kg":null,"dimensions":null,"purposes":[],"wikipedia_slug":null,"has_3d_model":false,"image_url":null,"decayed_at":null,"tle_current":{"epoch":"2026-05-25T04:28:34.870080Z","epoch_age_seconds":49182,"freshness":"FRESH","line1":"1 63694U 25086H   26145.18651470  .00000061  00000+0  10791-3 0  9996","line2":"2 63694  86.5023 320.8284 0001450  80.1958 279.9340 13.24409593 51811","mean_motion":13.24409593,"eccentricity":0.000145,"inclination_deg":86.5023,"raan_deg":320.8284,"arg_perigee_deg":80.1958,"mean_anomaly_deg":279.934,"bstar":0.00010791,"rev_number":5181,"period_min":108.72769327638,"perigee_km":1166.8295527905,"apogee_km":1169.0179104027,"semimajor_km":7546.0607315966,"source":"CELESTRAK","updated_at":"2026-05-25T13:38:03.891948Z"}}}